STARLINK-3647, 51994

Orbit data source: Space-Track

STARLINK-3647, 51994 is a payload satellite owned by SpaceX/Seattle (US) in LEO that was launched on Wed, 09 Mar 2022 UTC via an FALCON 9 launch vehicle from the Air Force Eastern Test Range (AFETR). Payload-class satellites include a variety of spacecraft equipped with specific instruments for various scientific and technological missions. These include communications satellites like Starlink; space stations such as the ISS; scientific satellites like the Hubble; Earth observation satellites from companies like Planet Labs, Umbra, and HawkEye 360; GPS; miniature CubeSats for education and research; and military/defense satellites.

Loading next visibility...
Identifier
51994, 2022-025AQ
Orbit
LEO
Country
Flag of USUS
Related business
Manufacturer
SpaceX/Seattle
Mission
Operational Commercial Communications
Bus & Motor
STARLINK, Unknown motor
Mass
297 kg wet, ~275 kg dry
Launch date (UTC)
2022-03-09 (4 years ago)
Launch vehicle
FALCON 9
Launch site
Air Force Eastern Test Range (AFETR)
Object type
Payload
Rocket body
Debris
Shape & HBR
Box + 1 Pan, 10.1 m
Radar Cross Section
13.562 m², Large (>1 m²)

Expand to show TLE details & history
Last TLE update: 15 hours ago

TLE from 15 hours ago
0 STARLINK-3647
1 51994U 22025AQ  25346.89051569  .00000896  00000-0  74411-4 0  9996
2 51994  53.2174  48.7787 0001361  95.7009 264.4138 15.08837827207819
Epoch: 2025-12-12T21:22Z
TLE epoch observation values (Epoch: 2025-12-12T21:22:20.555Z)
Latitude
-0.00006°
Longitude
6.36736°
Altitude
540.739 km
Speed
7.593 km/s
True Right ascension
03h 15m 06s
True Declination
0° 00' 00"
Sunlit
Object was in full shadow at epoch
Visualization orbit readout
Latitude
Unknown
Longitude
Unknown
Altitude
Unknown
Speed
Unknown
Apparent Right ascension
Unknown
Apparent Declination
Unknown
Sunlit
N/A
Visualization observer readout
Local Sidereal Time
11:18:36
Azimuth
Unknown
Elevation
Unknown
Doppler factor
Unknown
Orbital elements
Apogee altitude
540.937 km
Perigee altitude
539.053 km
Semi-major axis
6,918.132 km
Eccentricity
0.00014
Inclination
53.2174°
RAAN
48.7787°
Arg. of periapsis
95.7009°
True anomaly
264.39828°
Mean anomaly
264.4138°
Eccentric anomaly
264.40604°
Mean motion
3.7719 °/min
Orbital period
95.44 mins
BSTAR
0.000074411
Loading maneuver chart data...
Computing Atmospheric mass density...
Loading historical data...
Loading historical data...
Loading historical data...
Loading historical data...
Loading historical data...
Loading historical data...
Loading historical data...

Documentation

Showing up to 5 results
|